Miscellaneous Local Product
Issued by NWS North Platte, NE

Home | Current Version | Previous Version | Text Only | Print | Product List | Glossary On
Versions: 1 2 3 4 5 6 7 8 9 10 11 12 13 14 15 16 17 18 19 20 21 22 23 24 25 26 27 28 29 30 31 32 33 34 35 36 37 38 39 40 41 42 43 44 45 46 47 48 49 50
000
AXUS43 KLBF 292110
MISLBF


WESTERN AND NORTH CENTRAL NEBRASKA HOURLY WEATHER ROUNDUP
NATIONAL WEATHER SERVICE NORTH PLATTE NE
400 PM CDT WED JUL 29 2015

***STATIONS NOT REPORTING VARIABLES SUCH AS SKY/WEATHER OR
PRESSURE ARE PROVIDED BY THE NEBRASKA DEPARTMENT OF
ROADS...RAWS...AND APRS NETWORKS...AND ARE NOT UNDER
NATIONAL WEATHER SERVICE QUALITY CONTROL***

...OBSERVATIONS IN AND NEAR THE EASTERN PANHANDLE OF NEBRASKA...

CITY           SKY/WX    TMP DP  RH WIND       PRES   REMARKS
PINE RIDGE     SUNNY     82  46  28 SW8       30.23F
CHADRON        SUNNY     82  47  29 CALM      30.21F
ALLIANCE       SUNNY     83  46  27 SW7G17    30.24F
SIDNEY         SUNNY     83  48  29 S17G25    30.29F
BIG SPRINGS      N/A     80  54  40 SE12        N/A
$$

...OBSERVATIONS IN NORTH CENTRAL NEBRASKA...

CITY           SKY/WX    TMP DP  RH WIND       PRES   REMARKS
VALENTINE      MOSUNNY   87  40  19 W13       30.19F
THEDFORD       SUNNY     83  49  30 CALM      30.25S
AINSWORTH      SUNNY     84  44  24 SW12G20   30.22S
O`NEILL        SUNNY     85  47  26 W13       30.19S
ORD            SUNNY     84  47  27 NW9G17    30.20S
BROKEN BOW     SUNNY     84  50  30 SW8       30.23F
SPRINGVIEW       N/A     85  46  25 W9          N/A
CHAMBERS         N/A     87  49  26 MISG        N/A
EWING            N/A     84  56  37 W3          N/A
$$

...OBSERVATIONS IN SOUTHWEST NEBRASKA AND FAR NORTHEAST COLORADO...

CITY           SKY/WX    TMP DP  RH WIND       PRES   REMARKS
WRAY           FAIR      85  43  22 SE14G23   30.27F
HOLYOKE        FAIR      84  48  28 S15G23    30.27F
IMPERIAL       SUNNY     84  44  24 S14G23    30.26F
OGALLALA       SUNNY     83  47  27 S13       30.26F
NORTH PLATTE   SUNNY     83  50  31 S10       30.24F
MCCOOK         SUNNY     83  51  33 S5        30.24F
LEXINGTON      MOSUNNY   82  48  31 SE3       30.25F
PAXTON           N/A     81  55  40 SE8         N/A
BRADY            N/A     81  57  43 CALM        N/A
CALLAWAY         N/A     80  58  46 SW6         N/A
$$

...NORTH PLATTE AREA...

CITY           SKY/WX    TMP DP  RH WIND       PRES   REMARKS
AIRPORT        SUNNY     83  50  31 S10       30.24F
DOWNTOWN         N/A     82  51  34 S5G12       N/A
HILLCREST        N/A     82  50  32 S8G15       N/A
$$

...SOME WEATHER OBSERVATIONS FROM AROUND THE REGION...

CITY           SKY/WX    TMP DP  RH WIND       PRES   REMARKS
DENVER         MOSUNNY   84  48  28 SE22G29   30.27R
LARAMIE        SUNNY     76  26  15 N8        30.38F
CHEYENNE       SUNNY     79  47  32 E7        30.33F
SCOTTSBLUFF    SUNNY     85  49  28 S10G20    30.22F
RAPID CITY     SUNNY     82  47  29 N8        30.20F
PIERRE         SUNNY     87  38  17 W22G33    30.09F
WINNER         FAIR      88  42  20 W15G29    30.16F
SIOUX FALLS    MOSUNNY   82  52  35 NW14G24   30.09F
OMAHA          MOSUNNY   85  56  37 NW8       30.15S
GRAND ISLAND   CLOUDY    80  49  33 CALM      30.22F
KANSAS CITY    PTSUNNY   83  65  54 NE10      30.13F
WICHITA        CLOUDY    79  70  74 N14       30.13R
HAYS           MOSUNNY   82  55  39 NE13      30.21F
LIBERAL        CLOUDY    82  64  54 NE9       30.19F
GOODLAND       MOSUNNY   80  43  26 SE14G23   30.28F
$$



USA.gov is the U.S. government's official web portal to all federal, state and local government web resources and services.